FW5910 Weather Reports


Display with metric or nautical units.
time (UTC)temp
F
wind
direction
speed
MPH
gust
MPH
rain 1hr
in
rain 24hr
in
rain mn
in
humidity
%
barometer
mb
20260508142711 49 30 0.0 2.0 0.00 0.03 0.00 74 1014.2
20260508142209 48 26 0.0 2.0 0.00 0.03 0.00 77 1014.2
20260508141709 48 20 0.0 3.0 0.00 0.03 0.00 78 1014.2
20260508141210 48 18 0.0 3.0 0.00 0.03 0.00 80 1014.2
20260508140209 47 39 0.0 3.0 0.00 0.03 0.00 85 1014.2
20260508135710 47 316 0.0 1.0 0.00 0.03 0.00 85 1014.0
20260508135209 46 316 0.0 1.0 0.00 0.03 0.00 85 1014.0
20260508134709 46 317 0.0 0.0 0.00 0.03 0.00 85 1013.9
20260508134209 46 317 0.0 1.0 0.00 0.03 0.00 85 1014.0
20260508133708 46 317 0.0 2.0 0.00 0.03 0.00 85 1013.9
20260508133208 45 318 0.0 3.0 0.00 0.03 0.00 85 1014.0
20260508132705 45 316 0.0 3.0 0.00 0.03 0.00 85 1013.9
20260508132205 45 327 0.0 0.0 0.00 0.03 0.00 85 1013.8
20260508131703 45 328 0.0 0.0 0.00 0.03 0.00 85 1013.8
20260508131204 44 327 0.0 0.0 0.00 0.03 0.00 85 1013.7
20260508130703 44 327 0.0 0.0 0.00 0.03 0.00 85 1013.7
20260508130204 44 327 0.0 0.0 0.00 0.03 0.00 85 1013.7
20260508125703 44 327 0.0 0.0 0.00 0.03 0.00 85 1013.6
20260508125202 44 329 0.0 0.0 0.00 0.03 0.00 85 1013.6
20260508124204 44 329 0.0 0.0 0.00 0.03 0.00 84 1013.6
20260508123703 45 327 0.0 0.0 0.00 0.03 0.00 85 1013.6
20260508123202 45 327 0.0 0.0 0.00 0.03 0.00 85 1013.4
20260508122703 45 327 0.0 0.0 0.00 0.03 0.00 85 1013.6
20260508122202 45 327 0.0 0.0 0.00 0.03 0.00 85 1013.4
20260508121702 45 327 0.0 0.0 0.00 0.03 0.00 85 1013.7
20260508120703 44 327 0.0 0.0 0.00 0.03 0.00 84 1013.7
20260508120203 45 327 0.0 0.0 0.00 0.03 0.00 84 1013.8
20260508115706 45 327 0.0 2.0 0.00 0.03 0.00 84 1013.8
20260508115208 45 327 0.0 3.0 0.00 0.03 0.00 84 1013.7
20260508114708 45 327 0.0 3.0 0.00 0.03 0.00 84 1013.6
20260508114206 45 312 0.0 0.0 0.00 0.03 0.00 84 1013.6
20260508113706 45 312 0.0 0.0 0.00 0.03 0.00 84 1013.4
20260508112702 46 312 0.0 0.0 0.00 0.03 0.00 84 1013.1
20260508112203 46 312 0.0 0.0 0.00 0.03 0.00 84 1013.1
20260508111703 46 312 0.0 0.0 0.00 0.03 0.00 84 1013.2
20260508110704 46 312 0.0 0.0 0.00 0.03 0.00 84 1013.1
20260508110205 46 311 0.0 0.0 0.00 0.03 0.00 84 1013.2
20260508105704 45 332 0.0 0.0 0.00 0.03 0.00 83 1013.2
20260508105204 46 334 0.0 0.0 0.00 0.03 0.00 83 1013.1
20260508104702 46 334 0.0 0.0 0.00 0.03 0.00 83 1013.2
20260508104206 46 334 0.0 0.0 0.00 0.03 0.00 82 1013.1
20260508103202 46 334 0.0 0.0 0.00 0.03 0.00 82 1013.1
20260508102702 46 334 0.0 0.0 0.00 0.03 0.00 81 1013.1
20260508102204 46 334 0.0 0.0 0.00 0.03 0.00 80 1013.1
20260508101703 46 334 0.0 0.0 0.00 0.03 0.00 79 1013.1
20260508101203 46 334 0.0 0.0 0.00 0.03 0.00 77 1013.1
20260508100702 46 334 0.0 0.0 0.00 0.03 0.00 76 1013.1
20260508100207 46 334 0.0 0.0 0.00 0.03 0.00 77 1013.0
20260508095705 46 334 0.0 0.0 0.00 0.03 0.00 76 1013.1
20260508095207 46 334 0.0 0.0 0.00 0.03 0.00 76 1013.0
20260508094708 47 334 0.0 0.0 0.00 0.03 0.00 77 1013.0
20260508094206 47 334 0.0 0.0 0.00 0.03 0.00 78 1013.0
20260508093705 47 334 0.0 0.0 0.00 0.03 0.00 76 1013.0
20260508092702 47 334 0.0 0.0 0.00 0.03 0.00 75 1013.1
20260508092203 47 334 0.0 0.0 0.00 0.03 0.00 75 1013.0
20260508091705 48 334 0.0 0.0 0.00 0.03 0.00 75 1013.0
20260508090703 48 334 0.0 1.0 0.00 0.03 0.00 75 1013.0
20260508090202 48 334 0.0 3.0 0.00 0.03 0.00 75 1013.0
20260508085703 48 334 1.0 3.0 0.00 0.03 0.00 74 1012.9
20260508085202 48 334 0.0 3.0 0.00 0.03 0.00 74 1013.0
20260508084703 49 331 0.0 0.0 0.00 0.03 0.00 75 1012.8
20260508083706 49 331 0.0 0.0 0.00 0.03 0.00 74 1012.9
20260508083201 49 331 0.0 0.0 0.00 0.03 0.00 74 1012.8
20260508082656 49 331 0.0 1.0 0.00 0.03 0.00 74 1012.9
20260508081643 49 329 0.0 0.0 0.00 0.03 0.00 71 1013.0
20260508081136 49 329 0.0 2.0 0.00 0.03 0.00 71 1012.9
20260508080634 49 329 1.0 2.0 0.00 0.03 0.00 70 1012.9
20260508080133 50 330 0.0 2.0 0.00 0.03 0.00 71 1012.9
20260508075633 50 330 0.0 1.0 0.00 0.03 0.00 71 1012.9
20260508075134 50 330 0.0 1.0 0.00 0.03 0.00 71 1012.9
20260508074633 50 321 0.0 0.0 0.00 0.03 0.00 71 1012.9
20260508074133 50 321 0.0 0.0 0.00 0.03 0.00 71 1012.9
20260508073635 50 321 0.0 0.0 0.00 0.03 0.00 71 1012.8
20260508073133 50 321 0.0 0.0 0.00 0.03 0.00 71 1012.8
20260508072631 50 321 0.0 0.0 0.00 0.03 0.00 71 1012.9
20260508071631 50 317 0.0 0.0 0.00 0.03 0.00 71 1012.9
20260508070633 51 317 0.0 0.0 0.00 0.05 0.00 69 1012.7
20260508070131 51 317 0.0 0.0 0.00 0.06 0.00 70 1012.7
20260508065631 51 317 0.0 0.0 0.00 0.07 0.00 71 1012.7
20260508065130 51 317 0.0 0.0 0.00 0.08 0.00 71 1012.7
20260508064630 51 317 0.0 0.0 0.00 0.08 0.00 71 1012.6
20260508064130 51 317 0.0 0.0 0.00 0.08 0.00 70 1012.7
20260508063623 51 317 0.0 0.0 0.00 0.08 0.00 70 1012.7
20260508062623 51 317 0.0 0.0 0.00 0.08 0.00 69 1012.7
20260508062122 51 317 0.0 0.0 0.00 0.08 0.00 69 1012.7
20260508061622 51 317 0.0 0.0 0.00 0.08 0.00 68 1012.7
20260508060621 51 317 0.0 0.0 0.00 0.08 0.00 69 1012.7
20260508060120 51 317 0.0 0.0 0.00 0.08 0.00 69 1012.6
20260508055618 52 317 0.0 0.0 0.00 0.08 0.08 69 1012.6
20260508054617 52 317 0.0 0.0 0.00 0.08 0.08 69 1012.6
20260508054118 52 317 0.0 0.0 0.00 0.08 0.08 67 1012.5
20260508053615 52 317 0.0 0.0 0.00 0.08 0.08 67 1012.4
20260508053113 53 317 0.0 0.0 0.00 0.08 0.08 67 1012.4
20260508052610 53 317 0.0 0.0 0.00 0.08 0.08 68 1012.2
20260508052108 53 317 0.0 0.0 0.00 0.08 0.08 68 1012.2
20260508051606 53 317 0.0 0.0 0.00 0.08 0.08 68 1012.2
20260508051106 53 317 0.0 0.0 0.00 0.08 0.08 66 1012.2
20260508050603 54 316 0.0 0.0 0.00 0.08 0.08 64 1012.2
20260508045603 54 316 0.0 0.0 0.00 0.08 0.08 66 1012.0
20260508045056 55 317 0.0 0.0 0.00 0.09 0.08 65 1012.0
20260508044549 55 318 0.0 0.0 0.00 0.09 0.08 65 1012.0
20260508044044 55 319 0.0 0.0 0.00 0.09 0.08 65 1012.0
20260508043538 55 320 0.0 0.0 0.00 0.09 0.08 64 1012.0
20260508043032 56 320 0.0 1.0 0.00 0.09 0.08 62 1012.0
20260508042533 56 315 0.0 2.0 0.00 0.09 0.08 58 1012.0
20260508041030 58 346 1.0 5.0 0.00 0.09 0.08 57 1011.8
20260508040530 60 240 1.0 3.0 0.00 0.09 0.08 52 1011.7
20260508040033 60 225 2.0 4.0 0.00 0.09 0.08 48 1011.6
20260508035029 61 214 2.0 5.0 0.00 0.09 0.08 47 1011.5
20260508034529 61 218 3.0 5.0 0.00 0.09 0.08 47 1011.5
20260508034030 60 215 3.0 5.0 0.00 0.09 0.08 47 1011.5
20260508032529 61 227 2.0 6.0 0.00 0.09 0.08 48 1011.4
20260508032030 61 246 3.0 6.0 0.00 0.09 0.08 48 1011.2
20260508031029 61 207 1.0 4.0 0.00 0.09 0.08 50 1011.0
20260508030529 62 194 1.0 4.0 0.00 0.09 0.08 52 1011.0
20260508030030 62 213 2.0 3.0 0.00 0.09 0.08 50 1011.2
20260508025531 62 213 2.0 5.0 0.00 0.09 0.08 51 1011.0
20260508025032 62 213 1.0 5.0 0.00 0.09 0.08 50 1011.0
20260508024532 63 216 0.0 3.0 0.00 0.09 0.08 52 1011.0
20260508023529 65 208 2.0 4.0 0.00 0.09 0.08 48 1010.9
20260508023030 65 210 2.0 4.0 0.00 0.09 0.08 44 1010.9
20260508022530 65 219 3.0 5.0 0.00 0.09 0.08 44 1010.9
20260508022029 65 218 2.0 5.0 0.00 0.09 0.08 44 1010.8
20260508021529 65 205 1.0 4.0 0.00 0.09 0.08 44 1010.8
20260508021031 65 208 2.0 4.0 0.00 0.09 0.08 44 1010.8
20260508020030 65 198 2.0 4.0 0.00 0.09 0.08 44 1010.8
20260508015530 65 195 2.0 4.0 0.00 0.09 0.08 44 1010.8
20260508015030 65 240 2.0 4.0 0.00 0.09 0.08 43 1010.9
20260508014529 65 232 2.0 4.0 0.00 0.09 0.08 43 1010.9
20260508013530 66 238 1.0 4.0 0.00 0.09 0.08 42 1011.0
20260508013030 67 243 1.0 3.0 0.00 0.09 0.08 41 1010.9
20260508012529 67 226 1.0 3.0 0.00 0.09 0.08 40 1010.9
20260508011529 67 227 1.0 3.0 0.00 0.09 0.08 42 1010.9
20260508010529 67 227 1.0 4.0 0.00 0.09 0.08 40 1011.2
20260508010029 67 226 2.0 4.0 0.00 0.09 0.08 40 1011.2
20260508005029 67 205 0.0 4.0 0.00 0.09 0.08 40 1011.3
20260508004530 67 205 0.0 3.0 0.00 0.09 0.08 40 1011.3
20260508004030 66 220 0.0 3.0 0.00 0.09 0.08 44 1011.3
20260508003529 66 192 0.0 1.0 0.00 0.09 0.08 43 1011.4
20260508002529 66 191 1.0 6.0 0.00 0.09 0.08 40 1011.3
20260508002032 66 191 2.0 6.0 0.00 0.09 0.08 40 1011.3
20260508001532 65 128 2.0 5.0 0.00 0.09 0.08 42 1011.4
20260508000529 66 134 2.0 6.0 0.00 0.09 0.08 41 1011.4
20260508000030 65 123 2.0 5.0 0.00 0.09 0.08 44 1011.4
20260507235529 65 0 3.0 6.0 0.00 0.09 0.08 44 1011.5
20260507235029 65 175 3.0 6.0 0.00 0.09 0.08 44 1011.5
20260507234529 64 145 2.0 5.0 0.00 0.09 0.08 44 1011.6
20260507234029 64 136 2.0 4.0 0.00 0.09 0.08 44 1011.7
20260507233530 64 221 1.0 4.0 0.00 0.09 0.08 46 1011.8
20260507233030 64 0 1.0 3.0 0.00 0.09 0.08 46 1011.7
20260507232529 64 216 1.0 3.0 0.00 0.09 0.08 46 1011.8
20260507232031 63 220 3.0 5.0 0.00 0.09 0.08 46 1011.7
20260507231527 63 140 2.0 5.0 0.00 0.09 0.08 46 1011.6
20260507231024 63 138 1.0 3.0 0.00 0.09 0.08 46 1011.8
20260507230524 64 140 1.0 6.0 0.00 0.09 0.08 47 1011.9
20260507230023 64 211 1.0 6.0 0.00 0.09 0.08 47 1012.0
20260507225522 64 180 1.0 3.0 0.00 0.09 0.08 47 1012.0
20260507225023 64 180 1.0 3.0 0.00 0.09 0.08 45 1011.8
20260507224522 65 229 1.0 3.0 0.00 0.09 0.08 44 1011.9
20260507224016 66 241 1.0 3.0 0.00 0.09 0.08 43 1012.0
20260507223511 66 232 1.0 4.0 0.00 0.09 0.08 42 1012.1
20260507223005 67 309 1.0 4.0 0.00 0.09 0.08 39 1012.1
20260507222505 67 0 1.0 4.0 0.00 0.09 0.08 41 1012.1
20260507222002 67 0 1.0 4.0 0.00 0.09 0.08 40 1012.1
20260507221502 67 191 1.0 4.0 0.00 0.09 0.08 39 1012.1
20260507221002 67 233 1.0 4.0 0.00 0.09 0.08 40 1012.0
20260507220503 67 180 1.0 4.0 0.00 0.09 0.08 38 1011.9
20260507220002 66 178 2.0 4.0 0.00 0.09 0.08 40 1011.8
20260507215501 66 198 2.0 4.0 0.00 0.09 0.08 40 1012.0
20260507214504 65 170 2.0 6.0 0.00 0.09 0.08 39 1012.0
20260507214005 64 173 3.0 8.0 0.00 0.09 0.08 43 1012.0
20260507213002 64 125 3.0 7.0 0.00 0.09 0.08 43 1012.4
20260507212501 65 132 2.0 3.0 0.00 0.09 0.08 40 1012.5
20260507211502 66 0 1.0 4.0 0.00 0.09 0.08 40 1012.7
20260507211001 67 335 1.0 4.0 0.00 0.09 0.08 39 1013.0
20260507210001 66 321 1.0 3.0 0.00 0.09 0.08 40 1013.1
20260507205502 66 296 1.0 4.0 0.00 0.09 0.08 41 1013.1
20260507204501 66 278 2.0 4.0 0.00 0.09 0.08 41 1012.8
20260507203459 64 128 2.0 4.0 0.00 0.09 0.08 45 1012.7
20260507202958 64 135 3.0 5.0 0.00 0.09 0.08 45 1012.6
20260507202501 65 140 3.0 5.0 0.00 0.09 0.08 45 1012.6
20260507201956 65 148 2.0 4.0 0.00 0.09 0.08 45 1012.7
20260507201453 64 210 2.0 4.0 0.00 0.09 0.08 47 1012.8
20260507200454 63 116 3.0 5.0 0.00 0.09 0.08 46 1012.7
20260507195955 64 130 3.0 5.0 0.00 0.09 0.08 46 1012.8
20260507195452 64 166 2.0 7.0 0.00 0.09 0.08 43 1012.9
20260507194950 65 182 3.0 7.0 0.00 0.09 0.08 43 1012.8
20260507193946 64 136 2.0 7.0 0.00 0.09 0.08 43 1012.9
20260507193447 64 191 2.0 5.0 0.00 0.09 0.08 47 1012.9
20260507192946 64 99 3.0 10.0 0.00 0.09 0.08 47 1013.0
20260507192446 63 167 3.0 10.0 0.00 0.09 0.08 47 1013.0
20260507191449 63 0 2.0 8.0 0.00 0.09 0.08 47 1013.1
20260507190949 62 0 3.0 8.0 0.00 0.09 0.08 49 1013.2
20260507190449 61 0 3.0 7.0 0.00 0.09 0.08 52 1013.2
20260507185949 61 121 3.0 7.0 0.00 0.09 0.08 52 1013.3
20260507184443 61 142 3.0 8.0 0.00 0.09 0.08 50 1013.4
20260507183946 61 217 2.0 8.0 0.00 0.09 0.08 52 1013.6
20260507183444 60 200 2.0 7.0 0.00 0.09 0.08 53 1013.6
20260507182444 60 119 2.0 6.0 0.00 0.09 0.08 55 1013.3
20260507181441 60 196 2.0 9.0 0.00 0.09 0.08 56 1013.6
20260507180939 59 206 2.0 9.0 0.00 0.09 0.08 58 1013.4
20260507180442 59 186 3.0 5.0 0.00 0.09 0.08 58 1013.4
20260507175941 58 136 3.0 6.0 0.00 0.09 0.08 59 1013.3
20260507175441 58 125 3.0 6.0 0.00 0.09 0.08 60 1013.3
20260507174940 58 119 2.0 5.0 0.00 0.09 0.08 65 1013.3
20260507173440 56 128 2.0 3.0 0.00 0.09 0.08 69 1013.3
20260507172935 56 128 2.0 3.0 0.00 0.09 0.08 68 1013.3
20260507172435 56 128 2.0 3.0 0.00 0.09 0.08 68 1013.4
20260507171936 56 130 2.0 3.0 0.00 0.09 0.08 68 1013.6
20260507171436 56 130 2.0 4.0 0.00 0.09 0.08 68 1013.4
20260507170935 56 130 2.0 4.0 0.00 0.09 0.08 68 1013.6
20260507165936 55 221 1.0 5.0 0.00 0.09 0.08 71 1013.6
20260507165437 55 221 2.0 5.0 0.01 0.09 0.08 72 1013.7
20260507164935 54 245 1.0 5.0 0.01 0.09 0.08 71 1013.8
20260507164433 54 188 1.0 4.0 0.02 0.09 0.08 75 1013.8
20260507163932 53 182 1.0 3.0 0.02 0.09 0.08 75 1013.8
20260507163432 53 0 3.0 6.0 0.02 0.09 0.08 74 1013.8
20260507162931 52 136 2.0 6.0 0.02 0.09 0.08 74 1013.9
20260507161932 52 28 0.0 0.0 0.03 0.09 0.08 76 1014.0
20260507161432 52 26 0.0 0.0 0.03 0.09 0.08 75 1014.1
20260507160432 52 71 0.0 1.0 0.03 0.09 0.08 74 1013.9
20260507155929 51 48 0.0 2.0 0.03 0.09 0.08 74 1013.9
20260507155430 52 48 0.0 2.0 0.02 0.08 0.07 75 1013.9
20260507154930 51 48 0.0 2.0 0.02 0.08 0.07 75 1013.9
20260507154429 51 46 0.0 1.0 0.01 0.07 0.06 75 1013.9
20260507153930 51 46 0.0 1.0 0.01 0.07 0.06 74 1013.8
20260507153429 51 47 0.0 1.0 0.01 0.07 0.06 73 1013.8
20260507152929 51 48 0.0 1.0 0.01 0.07 0.06 72 1013.6
20260507152431 51 47 0.0 1.0 0.01 0.07 0.06 72 1013.6
20260507151931 51 47 0.0 0.0 0.00 0.06 0.05 71 1013.6
20260507151428 51 47 0.0 1.0 0.00 0.06 0.05 70 1013.6
20260507150930 51 46 0.0 2.0 0.00 0.06 0.05 71 1013.4
20260507150429 51 47 0.0 2.0 0.00 0.06 0.05 71 1013.6
20260507145933 51 49 0.0 1.0 0.00 0.06 0.05 72 1013.4
20260507145431 51 49 0.0 2.0 0.00 0.06 0.05 72 1013.4
20260507144931 51 50 0.0 2.0 0.00 0.06 0.05 72 1013.4
20260507144431 51 49 0.0 2.0 0.00 0.06 0.05 72 1013.4
20260507143929 51 61 0.0 1.0 0.00 0.06 0.05 93 1013.4
20260507143429 51 63 0.0 1.0 0.00 0.06 0.05 93 1013.2